Epoch 2018 June 11.0 TT = JDT 2458280.5
T 2018 June 14.53788 TT Rudenko
q 4.6625811 (2000.0) P Q
n 0.00562265 Peri. 283.11813 -0.86074567 -0.13154729
a 31.3214445 Node 251.12716 +0.25122436 -0.94996499
e 0.8511377 Incl. 31.31098 -0.44272251 -0.28330519
P 175
From 97 observations 2017 Feb. 12-2019 July 25, mean residual 0".3.